Flag for U.S.A. Weather past 2 weeks in Kilgore, Texas, U.S.A.

Now
79 °F

Partly sunny.


Feels Like: 81 °F
Forecast: 67 / 83 °F
Wind: 3 mph from Northwest

Location: Gregg County Airport

Current Time: May 30, 2015 at 4:44:55 PM

Latest Report: May 30, 2015 at 3:53 PM


Visibility: 10 mi

Pressure: 30.01 "Hg

Humidity: 65%

Dew point: 66 °F

Location of KilgoreLocation

Historic Weather in Kilgore — Graph

°F

Kilgore temperature yesterday

Maximum temperature yesterday: 86 °F (at 2:53 PM)
Minimum temperature yesterday: 72 °F (at 2:53 AM)
Average temperature yesterday: 78 °F

Past Weeks' High & Low Weather Summary

 TemperatureHumidityPressure
High89 °F (May 28, 3:53 PM)94% (May 18, 9:53 AM)30.21 "Hg (May 18, 9:53 AM)
Low56 °F (May 22, 5:53 AM)50% (May 28, 4:53 PM)29.81 "Hg (May 16, 6:53 PM)
Average74 °F81%30.00 "Hg
* Reported May 15 2:53 PM — May 30 2:53 PM, Kilgore, Weather by CustomWeather, © 2015

Note: Actual official high and low records may vary slightly from our data, if they occured in-between our weather recording intervals... More about our weather records

Advertising

Kilgore weather history for previous 24 hours

 ConditionsComfort  
Time TempWeatherWind HumidityBarometerVisibility
2:53 PM
Sat, May 30
78 °FScattered clouds.No wind64%30.02 "Hg10 mi
1:53 PM75 °FScattered clouds.3 mph76%30.00 "Hg10 mi
12:53 PM72 °FScattered clouds.5 mph81%30.00 "Hg10 mi
11:53 AM70 °FScattered clouds.8 mph90%30.02 "Hg10 mi
10:53 AM70 °FLight rain. Broken clouds.5 mph93%30.06 "Hg7 mi
10:00 AM71 °FStrong thunderstorms. Mostly cloudy.13 mph90%30.08 "Hg4 mi
8:53 AM74 °FMore clouds than sun.No wind91%30.02 "Hg10 mi
8:01 AM74 °FRain. Fog.7 mph91%30.02 "Hg6 mi
6:53 AM72 °FOvercast.No wind93%29.99 "Hg10 mi
5:53 AM72 °FPartly cloudy.No wind91%29.97 "Hg10 mi
4:53 AM71 °FPassing clouds.No wind90%29.96 "Hg10 mi
3:53 AM71 °FPassing clouds.No wind90%29.94 "Hg10 mi
2:53 AM72 °FClear.3 mph91%29.95 "Hg10 mi
1:53 AM72 °FClear.5 mph91%29.96 "Hg10 mi
12:53 AM72 °FClear.No wind91%29.95 "Hg10 mi
11:53 PM
Fri, May 29
73 °FPassing clouds.5 mph88%29.96 "Hg10 mi
10:53 PM75 °FPassing clouds.3 mph79%29.95 "Hg10 mi
9:53 PM76 °FPassing clouds.6 mph80%29.94 "Hg10 mi
8:53 PM78 °FSunny.3 mph74%29.92 "Hg10 mi
7:53 PM81 °FSunny.6 mph65%29.90 "Hg10 mi
6:53 PM82 °FPassing clouds.7 mph63%29.88 "Hg10 mi
5:53 PM84 °FScattered clouds.14 mph59%29.88 "Hg10 mi
4:53 PM85 °FPassing clouds.17 mph53%29.87 "Hg10 mi
Weather by CustomWeather, © 2015

See weather overviewHow to use our weather pages